Regional Weather Roundup
Issued by NWS Raleigh/Durham, NC

Home | Current Version | Previous Version | Text Only | Print | Product List | Glossary On
Versions: 1 2 3 4 5 6 7 8 9 10 11 12 13 14 15 16 17 18 19 20 21 22 23 24 25 26 27 28
000
ASUS42 KRAH 010610
RWRRAH
NORTH CAROLINA WEATHER ROUNDUP
NATIONAL WEATHER SERVICE RALEIGH NC
200 AM EDT MON MAY 01 2017

NOTE: "FAIR" INDICATES FEW OR NO CLOUDS BELOW 12,000 FEET WITH NO
SIGNIFICANT WEATHER AND/OR OBSTRUCTIONS TO VISIBILITY.

NCZ001-053-055-056-065-067-010700-
WESTERN NORTH CAROLINA

CITY           SKY/WX    TMP DP  RH WIND       PRES   REMARKS
ASHEVILLE      NOT AVBL
JEFFERSON      RAIN      62  61  97 SE6       30.07F
MORGANTON      CLOUDY    70  65  85 S7        30.08F
HICKORY        CLOUDY    68  66  93 S12G17    30.03F
RUTHERFORDTON  NOT AVBL
MOUNT AIRY     CLOUDY    70  67  92 SE7       30.07F
BOONE          NOT AVBL
$$

NCZ021-022-025-041-071-084-088-010700-
CENTRAL NORTH CAROLINA

CITY           SKY/WX    TMP DP  RH WIND       PRES   REMARKS
CHARLOTTE      NOT AVBL
GREENSBORO     CLOUDY    70  67  90 S14       30.05F
WINSTON-SALEM  CLOUDY    71  64  78 S12G20    30.06F
RALEIGH-DURHAM MOCLDY    70  66  87 S9        30.09F
FORT BRAGG     CLEAR     71  67  89 S8        30.08F
FAYETTEVILLE   CLEAR     71  69  93 S7        30.09F
BURLINGTON     CLOUDY    70  65  84 S8        30.06F
LAURINBURG     CLEAR     70  68  93 S6        30.10F
$$

NCZ011-015-027-028-043-044-047-080-103-010700-
NORTHEASTERN NORTH CAROLINA

CITY           SKY/WX    TMP DP  RH WIND       PRES   REMARKS
ROCKY MT-WILSO MOCLDY    70  68  93 S8        30.10F
GREENVILLE     PTCLDY    70  70 100 S10       30.13F
WASHINGTON     PTCLDY    69  67  92 S6        30.13F
ELIZABETH CITY NOT AVBL
MANTEO         CLEAR     72  69  90 SW16      30.14F
CAPE HATTERAS  CLEAR     73  68  84 SW10      30.16F HAZE
$$

NCZ078-087-090-091-093-098-101-010700-
SOUTHEASTERN NORTH CAROLINA

CITY           SKY/WX    TMP DP  RH WIND       PRES   REMARKS
LUMBERTON      CLEAR     69  68  96 S3        30.09F
GOLDSBORO      CLEAR     70  70 100 S8        30.09F
KINSTON        PTCLDY    70  68  95 CALM      30.13F
KENANSVILLE    PTCLDY    68  66  94 SE5       30.12F
NEW BERN       PTCLDY    70  68  93 S7        30.15F
CHERRY POINT   NOT AVBL
BEAUFORT       CLEAR     73  70  90 S13       30.14F
JACKSONVILLE   MOCLDY    72  70  93 S8        30.12F
WILMINGTON     PTCLDY    72  69  90 S10       30.12F
$$





USA.gov is the U.S. government's official web portal to all federal, state and local government web resources and services.